Date,TemperatureHighF,TemperatureAvgF,TemperatureLowF,DewpointHighF,DewpointAvgF,DewpointLowF,HumidityHigh,HumidityAvg,HumidityLow,PressureMaxIn,PressureMinIn,WindSpeedMaxMPH,WindSpeedAvgMPH,GustSpeedMaxMPH,PrecipitationSumIn
2013-1-1,32,24,14,29,16,7,88,72,60,29.90,29.75,2,1,9,0.00
2013-1-2,26,21,16,18,15,11,82,76,70,30.04,29.86,2,1,8,0.00
2013-1-3,31,24,15,26,20,11,89,85,78,30.02,29.81,3,1,13,0.00
2013-1-4,34,30,24,28,24,20,89,81,76,29.91,29.73,6,4,23,0.00
2013-1-5,36,31,27,30,26,23,87,83,77,30.14,29.89,4,1,13,0.00
2013-1-6,36,35,33,34,33,29,97,93,81,29.97,29.74,3,2,14,0.07
2013-1-7,34,30,26,31,26,22,93,84,75,30.25,29.99,3,1,15,0.00
2013-1-8,39,33,30,33,30,27,100,87,79,30.15,29.99,3,1,14,0.02
2013-1-9,44,37,30,37,32,27,90,83,71,30.23,29.82,6,2,20,0.05
2013-1-10,40,35,30,30,29,27,89,79,67,30.44,30.23,2,0,7,0.00
2013-1-11,49,42,34,47,38,29,100,85,73,30.21,29.72,6,2,17,0.05
2013-1-12,58,50,45,53,49,44,100,95,84,29.85,29.78,3,1,15,0.00
2013-1-13,62,53,45,60,52,45,100,96,88,29.81,29.59,4,1,14,0.52
2013-1-14,45,34,26,45,29,21,100,82,70,30.25,29.64,3,1,14,0.07
2013-1-15,32,28,24,23,22,19,87,76,63,30.26,30.02,1,0,8,0.00
2013-1-16,39,32,28,31,26,21,82,77,71,30.01,29.64,4,1,14,0.00
2013-1-17,34,26,16,28,19,13,88,75,68,30.03,29.72,3,2,12,0.00
2013-1-18,33,21,11,25,15,6,89,76,64,30.28,29.85,4,2,16,0.00
2013-1-19,45,40,32,34,30,24,73,66,56,29.85,29.42,5,3,24,0.07
2013-1-20,46,29,17,36,20,10,81,67,53,29.95,29.33,7,4,23,0.00
2013-1-21,24,18,11,14,10,2,79,69,55,29.92,29.71,3,1,12,0.00
2013-1-22,14,9,5,1,-2,-5,69,61,52,30.04,29.77,4,3,17,0.00
2013-1-23,18,11,4,6,0,-4,76,61,48,30.07,29.94,2,1,9,0.00
2013-1-24,16,12,4,11,5,-2,87,72,57,30.37,29.93,2,1,8,0.00
2013-1-25,21,14,4,11,7,-2,87,76,63,30.34,29.91,2,1,8,0.00
2013-1-26,30,19,11,21,14,8,90,81,64,30.25,29.93,1,0,6,0.00
2013-1-27,30,21,12,21,16,10,94,81,68,30.40,30.17,2,0,8,0.00
2013-1-28,40,34,26,40,33,19,100,94,74,30.15,29.69,3,1,14,0.38
2013-1-29,52,41,34,52,41,34,99,99,99,29.89,29.55,3,1,11,0.66
2013-1-30,61,55,50,57,53,50,100,92,78,29.52,28.92,5,3,20,0.35
2013-1-31,50,29,21,50,24,14,100,79,56,29.58,28.92,7,4,24,0.06
2013-2-1,26,20,15,17,14,8,89,78,64,30.03,29.59,3,2,14,0.00
2013-2-2,25,19,14,20,15,7,92,83,72,30.02,29.81,4,1,12,0.00
2013-2-3,30,18,6,21,13,4,91,82,64,29.81,29.65,2,0,8,0.00
2013-2-4,24,16,10,15,10,6,87,77,63,29.83,29.72,2,1,9,0.00
2013-2-5,30,22,12,21,17,8,91,81,63,29.79,29.68,3,0,13,0.00
2013-2-6,26,23,14,24,16,11,90,76,61,30.20,29.72,3,1,11,0.00
2013-2-7,33,25,14,21,18,11,90,75,59,30.20,29.89,4,2,14,0.00
2013-2-8,32,25,17,32,24,17,100,94,78,29.99,29.63,4,2,12,0.00
2013-2-9,27,19,12,22,16,10,97,90,79,30.25,30.00,1,0,7,0.00
2013-2-10,38,24,7,29,19,5,95,82,59,30.23,29.77,4,1,13,0.00
2013-2-11,47,38,33,43,33,27,100,83,66,29.74,29.44,7,4,24,4.35
2013-2-12,36,33,30,30,28,25,86,82,74,29.83,29.58,4,2,23,0.00
2013-2-13,38,30,22,27,24,19,91,77,62,29.75,29.59,2,0,6,0.00
2013-2-14,39,31,19,36,28,18,100,88,70,29.73,29.60,4,1,13,0.08
2013-2-15,36,31,19,34,24,14,93,76,60,29.93,29.61,4,2,14,0.00
2013-2-16,32,24,17,23,18,14,92,78,61,29.93,29.77,3,1,11,0.00
2013-2-17,22,16,11,19,10,3,94,77,61,30.06,29.77,2,1,11,0.00
2013-2-18,32,20,5,24,12,1,87,71,52,30.11,29.69,3,1,12,0.00
2013-2-19,41,34,24,38,28,18,97,81,67,29.69,29.40,7,4,25,0.47
2013-2-20,26,21,18,18,15,12,88,75,64,29.95,29.62,5,3,20,0.00
2013-2-21,27,21,16,15,13,10,80,72,60,30.25,29.93,3,1,13,0.00
2013-2-22,34,28,21,32,24,16,92,83,71,30.22,29.81,3,2,14,0.01
2013-2-23,39,34,27,34,30,24,91,84,71,29.81,29.72,3,2,12,0.00
2013-2-24,35,31,27,29,26,24,90,82,73,29.94,29.71,3,1,13,0.01
2013-2-25,40,33,27,30,27,24,87,78,63,30.08,29.95,1,0,7,0.00
2013-2-26,44,34,26,34,28,23,100,78,53,30.06,29.56,6,3,21,0.32
2013-2-27,36,34,33,36,34,33,99,99,99,29.56,29.43,6,1,17,0.43
2013-2-28,39,35,32,38,34,31,100,97,91,29.63,29.39,1,0,8,1.55
2013-3-1,32,29,25,31,25,20,95,84,74,29.83,29.63,2,1,8,0.00
2013-3-2,29,25,22,21,20,18,85,79,72,29.83,29.76,2,1,8,0.00
2013-3-3,31,25,21,20,19,17,90,79,64,29.79,29.73,2,1,9,0.00
2013-3-4,33,27,19,23,20,16,85,76,64,29.93,29.78,2,1,10,0.00
2013-3-5,35,27,19,24,21,16,89,79,64,29.95,29.80,4,1,17,0.01
2013-3-6,41,34,26,34,30,22,95,85,72,30.00,29.79,5,2,14,0.00
2013-3-7,41,35,31,35,32,28,96,87,72,30.14,30.00,1,0,6,0.01
2013-3-8,43,35,27,34,29,24,100,80,56,30.26,30.14,2,0,10,0.01
2013-3-9,45,34,25,35,30,24,100,85,59,30.26,30.02,2,0,8,0.00
2013-3-10,61,50,36,35,31,26,80,49,34,30.02,29.79,4,2,15,0.00
2013-3-11,63,53,47,44,33,30,89,48,31,29.79,29.47,6,3,17,0.11
2013-3-12,46,40,34,44,34,28,91,80,72,29.76,29.55,3,2,14,0.06
2013-3-13,39,32,24,34,26,15,89,79,64,29.86,29.68,4,2,14,0.05
2013-3-14,33,27,22,16,13,6,70,55,35,29.95,29.86,4,2,14,0.00
2013-3-15,41,32,24,33,26,16,87,76,60,29.90,29.61,4,2,15,0.00
2013-3-16,32,27,20,22,18,15,83,69,61,29.84,29.69,3,1,11,0.00
2013-3-17,31,25,20,23,16,9,88,69,46,30.17,29.84,2,1,8,0.00
2013-3-18,38,28,20,33,19,9,95,70,45,30.16,29.49,4,2,18,0.00
2013-3-19,37,33,25,35,28,21,100,82,57,29.69,29.49,4,3,17,0.13
2013-3-20,36,28,23,25,20,15,90,73,54,29.70,29.66,3,2,11,0.05
2013-3-21,33,26,19,27,20,15,85,77,59,29.69,29.57,3,2,12,0.01
2013-3-22,36,30,25,30,26,22,92,84,72,29.81,29.62,2,2,11,0.00
2013-3-23,40,33,25,31,25,22,90,74,54,29.89,29.78,2,1,11,0.01
2013-3-24,39,32,22,31,23,20,94,71,49,29.90,29.57,4,1,13,0.04
2013-3-25,43,37,32,32,28,24,84,70,52,29.61,29.47,4,2,14,0.00
2013-3-26,49,40,32,32,28,23,86,65,38,29.82,29.61,2,1,8,0.00
2013-3-27,49,38,31,36,31,24,94,75,51,29.93,29.80,2,1,12,0.08
2013-3-28,50,40,34,38,34,29,96,80,47,30.07,29.92,1,0,8,0.04
2013-3-29,51,42,34,34,32,29,84,70,47,30.07,30.00,2,0,13,0.00
2013-3-30,53,40,27,35,27,22,92,64,37,30.07,29.87,2,1,11,0.00
2013-3-31,61,47,38,42,31,22,92,56,31,29.87,29.46,4,2,14,0.00
2013-4-1,43,36,28,42,26,17,93,67,41,29.84,29.44,4,2,20,0.05
2013-4-2,38,30,24,21,17,14,74,58,42,29.99,29.83,5,2,17,0.00
2013-4-3,37,31,26,20,17,13,66,55,38,30.25,29.99,3,2,14,0.00
2013-4-4,49,35,23,26,17,6,82,52,18,30.21,29.77,3,1,14,0.00
2013-4-5,46,38,30,29,24,18,81,59,41,30.03,29.75,3,1,9,0.00
2013-4-6,48,36,23,27,22,17,80,57,28,30.16,29.82,3,1,12,0.00
2013-4-7,66,53,42,46,34,20,66,48,33,29.89,29.55,8,3,24,0.00
2013-4-8,59,47,34,49,37,28,97,70,46,29.97,29.60,3,1,11,0.27
2013-4-9,61,49,43,48,46,42,100,88,59,29.96,29.64,3,1,15,0.64
2013-4-10,46,43,38,46,42,38,99,99,99,29.87,29.71,4,2,13,0.60
2013-4-11,39,34,32,39,34,31,100,97,81,29.94,29.72,6,3,16,0.46
2013-4-12,45,38,32,45,38,32,100,98,91,29.71,29.34,5,2,16,0.25
2013-4-13,46,41,38,41,38,35,100,89,76,29.77,29.60,4,2,15,0.01
2013-4-14,51,42,33,35,31,29,89,68,51,30.00,29.77,3,1,12,0.00
2013-4-15,66,52,37,49,40,29,76,65,51,29.96,29.82,3,1,15,0.00
2013-4-16,63,56,47,58,49,38,97,78,67,30.08,29.79,5,2,17,0.09
2013-4-17,55,46,35,41,35,31,90,65,43,30.20,30.02,4,1,13,0.00
2013-4-18,82,63,46,61,50,32,78,62,48,30.05,29.51,6,3,24,0.00
2013-4-19,70,57,42,61,48,33,85,72,60,29.59,29.20,8,4,29,0.08
2013-4-20,42,38,33,35,29,22,90,68,47,30.25,29.58,4,2,17,0.11
2013-4-21,43,36,26,27,23,18,79,59,46,30.50,30.25,3,1,11,0.00
2013-4-22,58,46,33,34,28,19,74,49,28,30.39,30.14,4,1,17,0.00
2013-4-23,63,53,42,41,34,26,66,50,31,30.14,29.74,4,2,14,0.00
2013-4-24,63,53,38,55,44,34,93,74,42,29.88,29.48,5,3,18,0.40
2013-4-25,56,44,33,41,36,32,100,76,42,30.15,29.89,4,1,16,0.02
2013-4-26,57,45,33,41,33,26,100,66,38,30.32,30.15,2,0,13,0.01
2013-4-27,67,54,40,41,34,24,60,46,31,30.25,30.03,2,1,8,0.00
2013-4-28,76,60,48,50,42,33,76,55,21,30.03,29.81,5,2,23,0.06
2013-4-29,67,58,53,56,51,48,83,77,66,29.86,29.77,4,2,14,0.00
2013-4-30,77,65,55,58,54,51,92,68,48,30.03,29.86,4,2,14,0.00
2013-5-1,76,66,58,55,50,42,74,58,39,30.16,30.03,3,2,12,0.00
2013-5-2,75,66,53,47,40,29,67,41,19,30.24,30.07,3,1,12,0.00
2013-5-3,78,68,56,47,42,38,56,40,25,30.12,30.01,5,2,12,0.00
2013-5-4,70,64,56,45,40,31,58,42,24,30.11,29.97,3,2,11,0.00
2013-5-5,73,64,50,48,42,37,77,48,28,30.05,29.92,4,1,10,0.00
2013-5-6,72,63,51,43,32,19,61,34,15,30.00,29.87,2,1,10,0.00
2013-5-7,75,65,52,54,48,37,73,55,45,29.96,29.85,2,1,8,0.00
2013-5-8,77,66,58,62,55,49,93,71,47,29.88,29.79,3,1,9,0.07
2013-5-9,77,65,56,63,56,49,97,76,40,29.80,29.74,1,0,8,0.00
2013-5-10,76,62,52,64,56,49,97,80,59,29.79,29.55,3,1,11,0.11
2013-5-11,61,55,48,61,50,44,100,83,66,29.63,29.52,2,1,14,0.02
2013-5-12,52,46,38,48,36,31,90,70,47,29.81,29.54,5,2,25,0.11
2013-5-13,53,43,35,38,33,28,85,67,48,29.99,29.81,3,1,12,0.01
2013-5-14,62,50,34,41,33,28,91,58,28,29.99,29.75,3,1,14,0.01
2013-5-15,79,64,51,61,48,40,78,58,38,29.75,29.39,4,2,20,0.01
2013-5-16,76,65,52,50,43,25,81,50,18,29.88,29.59,3,1,14,0.00
2013-5-17,67,58,45,44,40,34,82,55,35,30.06,29.88,3,1,12,0.00
2013-5-18,74,64,52,46,42,37,62,46,30,30.08,29.96,3,2,12,0.00
2013-5-19,81,70,58,62,56,43,81,63,48,29.96,29.81,3,1,13,0.00
2013-5-20,86,75,62,68,63,57,90,68,46,29.88,29.70,3,1,13,0.04
2013-5-21,88,75,64,73,65,57,92,72,39,29.78,29.59,4,1,15,0.01
2013-5-22,87,76,65,68,63,60,87,66,45,29.65,29.50,4,1,19,0.00
2013-5-23,79,65,44,65,58,43,96,79,54,29.80,29.55,3,1,16,0.38
2013-5-24,54,45,40,43,38,34,100,78,53,30.08,29.81,2,1,12,0.13
2013-5-25,59,51,39,42,36,34,90,60,41,30.13,30.05,2,1,11,0.00
2013-5-26,64,54,42,41,34,26,82,50,25,30.10,30.03,2,0,10,0.00
2013-5-27,72,60,42,43,36,27,82,47,22,30.12,29.96,1,0,9,0.00
2013-5-28,67,60,54,65,55,40,100,85,51,29.99,29.75,2,1,10,1.25
2013-5-29,80,70,62,72,65,60,99,84,63,29.86,29.72,4,1,17,0.56
2013-5-30,86,76,64,70,66,60,94,72,55,29.96,29.86,2,1,13,0.00
2013-5-31,89,79,68,69,66,63,93,68,45,29.91,29.78,3,1,15,0.09
2013-6-1,88,76,67,72,69,66,100,80,55,29.80,29.64,4,1,17,0.67
2013-6-2,76,69,57,70,64,50,99,85,64,29.77,29.53,4,2,20,0.77
2013-6-3,67,59,49,51,46,43,80,63,47,29.90,29.77,2,0,10,0.00
2013-6-4,69,60,50,49,44,38,77,57,36,30.02,29.89,2,0,11,0.00
2013-6-5,71,61,52,49,44,36,82,56,34,30.06,29.91,4,1,15,0.00
2013-6-6,59,56,52,59,53,40,100,88,49,29.91,29.67,4,2,13,0.65
2013-6-7,61,57,53,60,56,52,100,98,91,29.73,29.67,1,0,6,0.05
2013-6-8,68,61,57,63,58,54,100,89,73,29.92,29.70,2,0,9,0.04
2013-6-9,75,65,52,61,56,52,100,75,49,30.05,29.93,2,0,8,0.00
2013-6-10,76,68,64,71,64,57,100,89,75,29.93,29.55,2,1,9,0.67
2013-6-11,77,68,60,68,62,57,100,83,61,29.72,29.52,2,1,10,0.12
2013-6-12,79,70,57,62,58,55,96,67,47,29.78,29.62,2,0,10,0.00
2013-6-13,70,63,58,63,60,57,100,89,63,29.65,29.38,4,1,16,0.61
2013-6-14,74,65,55,63,58,52,100,82,59,29.86,29.65,1,0,8,0.00
2013-6-15,78,67,53,58,52,47,86,61,36,29.92,29.80,2,0,10,0.00
2013-6-16,80,70,64,70,63,57,97,79,62,29.80,29.57,2,1,12,0.07
2013-6-17,84,72,61,66,60,57,100,70,44,29.79,29.67,2,0,9,0.00
2013-6-18,70,65,58,58,52,45,88,65,43,29.89,29.75,3,1,10,0.00
2013-6-19,69,63,55,52,46,40,86,56,37,30.04,29.89,2,1,11,0.00
2013-6-20,76,66,51,55,49,45,87,57,36,30.10,30.03,2,0,9,0.00
2013-6-21,84,71,56,58,51,42,90,52,27,30.12,30.01,2,0,11,0.00
2013-6-22,89,78,67,72,64,51,85,61,51,30.01,29.85,3,1,15,0.26
2013-6-23,88,80,69,74,69,62,100,73,43,29.92,29.84,4,1,14,0.05
2013-6-24,88,80,73,72,69,65,86,68,52,29.91,29.79,3,1,12,0.00
2013-6-25,87,78,72,73,69,66,85,74,61,29.81,29.65,3,1,13,0.00
2013-6-26,86,77,69,73,69,65,96,76,57,29.69,29.64,2,1,10,0.00
2013-6-27,82,73,68,72,68,65,99,85,71,29.67,29.50,3,0,11,0.34
2013-6-28,75,68,64,72,68,63,99,98,85,29.50,29.36,2,0,6,1.37
2013-6-29,79,70,63,68,64,61,100,85,62,29.57,29.35,3,0,10,0.05
2013-6-30,79,71,63,67,63,60,97,77,59,29.79,29.56,2,1,9,0.00
2013-7-1,73,68,62,64,61,58,91,78,64,29.93,29.78,4,2,14,0.00
2013-7-2,75,68,61,67,62,58,91,82,72,29.94,29.88,3,1,11,0.00
2013-7-3,86,76,64,75,71,63,100,84,67,30.00,29.92,2,0,7,0.09
2013-7-4,85,77,70,76,72,69,100,87,63,30.04,29.96,2,1,10,0.19
2013-7-5,86,77,71,76,72,68,100,84,63,29.99,29.91,3,1,12,0.13
2013-7-6,89,78,68,75,71,68,100,79,55,30.00,29.88,2,0,10,0.00
2013-7-7,84,77,72,75,71,68,100,83,64,29.92,29.80,3,1,14,0.12
2013-7-8,87,78,70,75,71,68,100,80,62,29.91,29.84,2,1,10,0.01
2013-7-9,84,77,72,74,73,72,100,87,71,29.89,29.75,2,1,9,0.02
2013-7-10,88,78,72,77,73,60,100,84,66,29.75,29.55,3,2,16,0.00
2013-7-11,78,72,63,62,59,56,81,66,55,29.96,29.72,2,0,8,0.00
2013-7-12,80,72,64,66,63,59,93,75,60,30.07,29.92,3,1,7,0.00
2013-7-13,83,74,63,69,65,59,88,73,59,30.14,30.05,3,1,8,0.00
2013-7-14,87,80,69,74,71,50,96,76,32,30.19,30.13,1,0,7,0.00
2013-7-15,90,83,73,75,68,48,91,63,25,30.20,30.13,1,0,5,0.00
2013-7-16,91,84,74,75,70,64,94,64,42,30.19,30.10,1,0,8,0.00
2013-7-17,96,87,77,79,76,72,95,71,52,30.13,29.99,2,0,11,0.00
2013-7-18,97,87,78,78,76,73,91,71,52,30.01,29.84,2,0,10,0.00
2013-7-19,92,84,69,78,74,66,99,73,53,29.85,29.61,5,2,23,2.39
2013-7-20,82,76,70,76,67,61,100,77,52,29.80,29.67,2,0,10,0.63
2013-7-21,78,72,66,64,61,58,80,68,53,29.91,29.80,2,1,8,0.00
2013-7-22,83,73,63,67,64,60,91,73,54,29.89,29.67,3,1,8,0.00
2013-7-23,86,75,64,71,67,58,100,78,56,29.67,29.52,3,1,13,0.15
2013-7-24,68,64,59,58,51,48,84,64,48,29.93,29.63,2,1,12,0.01
2013-7-25,76,66,55,59,53,48,93,65,39,30.02,29.93,2,1,14,0.00
2013-7-26,78,68,55,58,55,51,86,63,42,30.01,29.88,2,1,11,0.00
2013-7-27,79,72,65,68,64,53,95,78,59,29.88,29.68,19,1,19,0.22
2013-7-28,75,69,62,68,57,51,100,70,46,29.87,29.67,3,1,12,0.02
2013-7-29,76,68,61,61,57,55,90,70,50,30.04,29.85,2,1,10,0.02
2013-7-30,78,69,59,61,58,55,88,69,50,30.09,30.03,2,0,7,0.00
2013-7-31,82,71,61,66,62,59,95,74,49,30.04,29.81,1,0,8,0.00
2013-8-1,78,72,66,70,65,60,100,76,10,29.81,29.67,2,0,9,0.41
2013-8-2,80,70,59,66,61,58,96,74,47,29.78,29.72,3,1,14,0.17
2013-8-3,77,70,61,65,58,52,100,71,43,29.85,29.73,2,0,8,0.01
2013-8-4,74,66,58,60,54,45,90,65,44,29.98,29.85,1,0,11,0.00
2013-8-5,79,66,54,58,52,48,92,63,40,30.01,29.91,2,0,10,0.00
2013-8-6,79,70,59,61,58,52,90,66,43,29.94,29.85,2,0,8,0.00
2013-8-7,85,75,67,69,66,61,85,73,56,29.85,29.73,5,1,15,0.02
2013-8-8,84,75,67,75,71,67,100,87,69,29.86,29.78,2,0,9,0.66
2013-8-9,79,70,64,70,64,58,100,82,55,29.83,29.78,1,0,8,0.05
2013-8-10,73,67,59,61,54,50,90,64,47,30.00,29.83,1,0,7,0.00
2013-8-11,79,68,55,58,55,52,93,66,41,30.03,29.93,2,0,6,0.00
2013-8-12,80,70,61,67,60,57,90,74,50,29.95,29.74,1,0,6,0.00
2013-8-13,74,68,58,69,59,47,100,76,49,29.80,29.65,2,1,11,0.35
2013-8-14,70,62,54,55,50,45,86,65,41,29.99,29.78,2,1,11,0.00
2013-8-15,77,65,53,56,52,48,83,63,43,30.02,29.96,2,1,13,0.00
2013-8-16,80,67,56,60,55,50,88,68,47,30.09,30.00,1,0,7,0.00
2013-8-17,81,70,57,61,58,49,96,68,35,30.18,30.09,2,0,9,0.00
2013-8-18,81,71,62,64,59,56,90,68,43,30.13,30.00,2,0,7,0.00
2013-8-19,82,72,61,66,62,58,100,74,47,30.01,29.93,1,0,6,0.00
2013-8-20,84,74,64,71,65,61,100,77,53,30.03,29.95,2,1,12,0.00
2013-8-21,86,76,66,70,66,63,100,74,48,30.05,29.92,2,1,11,0.00
2013-8-22,86,76,69,74,66,53,100,72,47,29.93,29.82,2,1,11,0.00
2013-8-23,74,68,61,61,55,48,89,65,42,30.10,29.91,3,1,9,0.00
2013-8-24,76,67,56,60,55,51,93,66,43,30.25,30.10,2,1,11,0.00
2013-8-25,83,71,58,64,58,53,93,66,40,30.22,30.02,2,1,11,0.00
2013-8-26,82,73,69,75,70,64,100,91,75,30.04,29.83,2,1,11,0.51
2013-8-27,86,75,67,77,72,66,99,92,68,29.84,29.76,1,0,7,0.56
2013-8-28,81,75,70,76,72,70,100,92,77,29.87,29.74,2,0,8,0.00
2013-8-29,83,75,67,76,69,64,99,84,56,29.95,29.86,1,0,6,0.00
2013-8-30,85,77,68,77,70,67,100,82,59,29.90,29.65,2,1,11,0.00
2013-8-31,80,73,70,73,71,68,100,92,76,29.74,29.62,2,0,8,0.01
2013-9-1,83,75,68,75,71,68,100,88,66,29.74,29.65,2,0,10,0.06
2013-9-2,82,73,67,76,68,56,100,87,64,29.70,29.61,2,0,9,0.01
2013-9-3,71,65,58,60,57,54,87,76,65,29.85,29.70,2,1,10,0.00
2013-9-4,76,67,57,65,59,53,94,76,52,29.90,29.84,3,1,17,0.01
2013-9-5,65,60,51,62,48,36,95,67,41,30.14,29.89,80,1,80,0.00
2013-9-6,69,59,45,51,47,41,92,67,41,30.18,29.97,2,0,11,0.00
2013-9-7,67,63,58,66,60,51,100,90,76,29.97,29.77,2,0,11,0.25
2013-9-8,66,63,54,66,54,46,99,76,54,30.00,29.77,3,1,11,0.00
2013-9-9,74,62,50,67,55,48,97,78,58,30.01,29.83,3,0,8,0.00
2013-9-10,85,77,68,76,72,67,100,84,67,29.90,29.78,3,1,14,0.07
2013-9-11,86,79,73,75,72,67,96,80,57,29.92,29.79,3,1,13,0.05
2013-9-12,78,70,62,72,67,56,100,89,74,29.84,29.65,1,0,10,0.13
2013-9-13,62,56,52,57,49,42,86,78,68,29.94,29.69,1,0,9,0.02
2013-9-14,61,54,47,50,43,31,89,66,33,30.03,29.93,1,0,8,0.00
2013-9-15,70,59,50,59,53,49,100,83,59,30.02,29.94,2,0,11,0.12
2013-9-16,56,52,44,55,49,42,100,89,69,30.26,29.95,2,0,25,0.02
2013-9-17,62,51,40,50,44,40,100,80,51,30.35,30.15,2,0,8,0.00
2013-9-18,77,59,48,61,49,45,96,73,43,30.15,29.98,43,3,43,0.00
2013-9-19,75,63,54,64,58,51,100,84,64,30.00,29.89,2,1,11,0.00
2013-9-20,81,70,59,69,65,58,100,86,66,29.90,29.62,4,1,14,0.00
2013-9-21,73,63,52,70,62,52,100,98,83,29.66,29.51,2,1,12,1.83
2013-9-22,58,53,49,52,47,41,100,81,63,29.93,29.66,2,0,8,0.00
2013-9-23,58,53,46,47,44,41,91,72,53,30.06,29.93,1,0,9,0.01
2013-9-24,61,51,42,53,45,38,100,81,44,30.04,29.90,1,0,6,0.00
2013-9-25,66,54,43,57,47,42,100,80,46,29.91,29.84,2,0,8,0.00
2013-9-26,67,56,45,55,49,43,100,80,60,30.04,29.88,39,1,39,0.00
2013-9-27,67,59,51,58,54,51,100,84,72,30.15,30.04,2,1,8,0.00
2013-9-28,72,61,52,60,55,51,100,83,55,30.16,30.03,2,0,10,0.00
2013-9-29,73,63,54,59,55,50,92,76,56,30.03,29.87,3,1,14,0.00
2013-9-30,73,66,62,64,61,58,96,86,69,29.89,29.84,2,1,12,0.00
2013-10-1,72,65,58,66,62,58,100,89,72,29.91,29.81,3,1,11,0.00
2013-10-2,75,67,59,65,61,44,100,82,49,29.98,29.81,1,0,9,0.00
2013-10-3,72,62,50,56,48,41,91,62,40,30.01,29.89,2,0,8,0.00
2013-10-4,70,66,63,70,66,56,100,98,78,29.95,29.87,1,0,4,0.65
2013-10-5,65,62,59,65,61,59,100,98,94,29.98,29.88,3,1,10,0.30
2013-10-6,78,68,59,74,66,58,99,93,78,29.88,29.56,3,1,13,0.46
2013-10-7,72,60,50,66,54,45,100,82,57,29.95,29.53,5,2,17,0.45
2013-10-8,61,53,45,52,48,44,100,83,61,30.21,29.95,2,0,6,0.00
2013-10-9,64,54,44,52,48,44,100,82,51,30.26,30.14,2,0,7,0.00
2013-10-10,65,54,45,58,51,45,100,91,71,30.16,30.02,1,0,7,0.01
2013-10-11,66,56,47,59,51,43,100,83,61,30.06,29.46,2,0,7,0.00
2013-10-12,71,60,47,57,49,42,100,72,38,30.06,29.98,2,0,9,0.00
2013-10-13,69,63,59,62,55,43,100,76,50,30.16,30.02,2,1,10,0.34
2013-10-14,61,55,49,59,50,44,100,84,56,30.23,30.16,1,0,7,0.00
2013-10-15,68,58,48,58,53,46,93,84,67,30.17,29.81,3,1,11,0.01
2013-10-16,68,62,54,64,60,50,100,92,80,29.81,29.63,3,1,15,0.39
2013-10-17,63,55,51,55,52,48,100,88,69,29.76,29.60,2,0,8,0.38
2013-10-18,59,52,46,51,47,42,100,83,54,29.78,29.62,3,1,13,0.01
2013-10-19,57,50,43,54,48,42,100,91,78,29.75,29.55,1,0,11,0.30
2013-10-20,56,46,38,47,43,37,100,88,62,29.84,29.66,2,0,9,0.00
2013-10-21,64,55,47,49,46,43,95,73,48,29.83,29.65,3,1,17,0.15
2013-10-22,50,44,40,50,35,30,97,71,52,29.74,29.64,3,1,18,0.09
2013-10-23,47,42,36,41,36,32,89,80,68,29.71,29.60,1,0,7,0.05
2013-10-24,48,39,33,38,34,31,93,83,63,29.91,29.69,3,1,14,0.01
2013-10-25,60,42,35,60,37,32,100,84,60,30.08,29.79,2,0,9,0.00
2013-10-26,45,43,42,43,38,30,100,81,62,29.85,29.51,5,2,22,0.40
2013-10-27,49,41,35,42,37,33,100,85,68,29.78,29.57,2,0,11,0.00
2013-10-28,47,42,33,39,31,21,88,68,43,30.13,29.76,2,1,10,0.00
2013-10-29,46,40,32,36,30,24,81,68,49,30.19,30.02,2,0,10,0.00
2013-10-30,54,46,39,43,40,36,93,80,58,30.02,29.81,2,0,7,0.01
2013-10-31,66,57,46,62,54,42,100,92,77,29.81,29.07,4,2,23,0.76
2013-11-1,62,55,49,61,50,43,100,83,67,29.41,28.89,6,3,24,0.25
2013-11-2,49,44,37,46,42,33,100,91,85,29.77,29.36,2,1,9,0.19
2013-11-3,37,33,26,33,25,18,85,71,54,30.26,29.77,2,0,10,0.00
2013-11-4,42,34,24,29,23,20,92,66,47,30.35,30.15,3,1,13,0.00
2013-11-5,55,47,38,39,33,22,71,58,50,30.17,30.03,4,2,12,0.00
2013-11-6,63,55,48,57,45,33,100,71,54,30.03,29.54,4,2,16,0.34
2013-11-7,55,44,39,54,37,30,99,79,67,29.76,29.55,2,1,10,0.08
2013-11-8,43,39,34,34,31,29,87,73,62,29.98,29.72,2,1,11,0.01
2013-11-9,50,44,33,46,35,27,92,72,54,29.96,29.52,7,2,24,0.11
2013-11-10,60,43,37,42,35,30,83,75,63,30.23,29.53,4,2,20,8.65
2013-11-11,45,38,32,40,34,25,94,85,77,30.22,29.96,3,1,12,0.20
2013-11-12,35,30,25,26,21,15,82,69,56,30.44,30.17,2,1,11,0.00
2013-11-13,38,32,24,29,23,16,84,70,52,30.45,30.10,4,2,21,0.00
2013-11-14,46,42,37,35,30,26,75,62,46,30.14,30.01,4,3,18,0.00
2013-11-15,51,46,42,38,33,28,80,61,47,30.13,30.06,3,2,17,0.00
2013-11-16,55,49,39,44,40,33,86,70,62,30.24,30.00,4,1,11,0.00
2013-11-17,62,57,52,57,52,44,95,85,71,30.00,29.36,6,3,25,0.34
2013-11-18,54,45,36,46,36,28,85,71,61,29.99,29.40,6,3,25,0.01
2013-11-19,40,35,27,28,24,21,81,65,53,30.48,29.99,2,1,11,0.00
2013-11-20,41,32,24,26,22,19,87,69,50,30.58,30.41,4,1,12,0.00
2013-11-21,45,40,32,40,29,17,95,67,47,30.42,30.26,4,2,12,0.14
2013-11-22,47,42,32,46,41,28,100,96,82,30.26,30.04,2,0,15,0.28
2013-11-23,33,28,20,28,20,8,86,72,57,30.27,30.08,4,2,14,0.00
2013-11-24,26,21,16,15,11,7,76,67,48,30.45,30.27,3,1,14,0.00
2013-11-25,35,28,18,29,18,10,86,65,50,30.41,30.10,3,2,15,0.00
2013-11-26,35,33,32,34,32,29,100,96,88,30.14,29.85,2,0,8,0.00
2013-11-27,34,31,24,32,27,18,100,88,72,29.99,29.73,2,0,10,0.00
2013-11-28,30,24,19,22,18,15,87,77,63,30.43,30.00,2,0,9,0.00
2013-11-29,29,23,18,22,18,13,92,80,66,30.73,30.43,1,0,4,0.00
2013-11-30,37,28,18,28,21,13,82,74,63,30.70,30.18,5,2,14,0.00
2013-12-1,41,37,33,35,33,28,90,84,74,30.18,29.97,2,1,9,0.40
2013-12-2,38,34,28,36,33,27,100,94,87,29.97,29.90,0,0,4,0.39
2013-12-3,37,31,24,31,27,23,97,86,65,30.02,29.95,3,1,8,0.00
2013-12-4,46,40,33,43,37,30,97,90,83,30.03,29.85,3,1,9,0.06
2013-12-5,59,50,39,54,44,32,88,79,61,30.08,29.74,5,2,17,0.00
2013-12-6,39,35,31,33,26,21,87,69,61,30.29,30.06,2,1,8,0.01
2013-12-7,31,27,19,21,17,11,76,65,56,30.59,30.29,2,1,11,0.00
2013-12-8,29,24,17,21,14,10,79,68,57,30.59,30.16,3,1,12,0.00
2013-12-9,36,31,27,36,28,21,100,89,76,30.16,29.87,4,2,18,0.05
2013-12-10,27,23,20,21,13,9,79,66,53,30.09,29.93,5,2,17,0.00
2013-12-11,27,21,15,17,13,7,79,70,62,30.32,30.09,4,2,14,0.00
2013-12-12,20,17,10,14,8,4,80,68,58,30.36,30.08,17,5,17,0.00
2013-12-13,26,19,14,20,13,9,82,78,66,30.41,30.06,14,4,14,0.00
2013-12-14,18,15,14,17,12,8,94,85,74,30.42,29.74,14,6,20,0.00
2013-12-15,26,20,15,21,18,9,97,88,78,29.91,29.67,14,3,14,0.00
2013-12-16,19,13,8,11,7,4,88,78,69,30.18,29.91,14,2,14,0.00
2013-12-17,27,20,11,26,17,7,94,87,78,30.14,29.91,9,2,9,0.00
2013-12-18,60,27,22,26,23,20,94,84,76,30.07,29.92,14,4,14,0.00
2013-12-19,40,35,28,34,30,22,96,82,75,30.03,29.87,14,3,14,0.48
2013-12-20,40,37,34,40,37,33,100,99,96,29.99,29.77,6,1,8,1.09
2013-12-21,47,37,31,46,37,31,99,99,99,29.89,29.70,14,2,14,0.78
2013-12-22,36,33,31,36,33,30,99,99,99,29.95,29.60,5,0,5,0.97
2013-12-23,36,32,24,36,32,23,100,99,97,30.26,29.94,11,2,11,0.00
2013-12-24,26,20,8,25,18,4,100,90,81,30.49,30.19,7,1,7,0.00
2013-12-25,26,16,4,21,11,0,90,82,74,30.50,30.15,13,2,13,0.00
2013-12-26,35,27,18,33,23,12,97,84,76,30.27,30.03,11,2,11,0.00
2013-12-27,34,28,18,33,25,13,99,88,75,30.26,30.03,9,2,9,0.00
2013-12-28,41,37,34,36,33,31,95,86,80,30.09,29.92,17,4,17,0.38
2013-12-29,44,39,27,36,32,21,86,77,58,29.92,29.62,15,3,15,0.00
2013-12-30,27,21,18,21,12,9,79,69,61,30.21,29.81,11,2,16,0.00
2013-12-31,23,18,12,19,11,5,87,75,68,30.24,29.94,17,4,17,0.00
2014-1-1,24,16,10,12,9,3,86,75,59,30.39,30.23,10,3,10,0.00
2014-1-2,14,10,6,11,7,3,89,87,84,30.28,30.00,20,6,20,0.00